Find Kosmos-864

NORAD ID: 9509 Int'l Des: 1976-108 Owner: VMF Country: SU operational
LEOCIRCULARPOLAR

Current View

Loading 3D Globe...

About Kosmos-864

Kosmos-864 (NORAD 9509) is a satellite by VMF of SU. It operates in LEO, CIRCULAR, POLAR orbit

Upcoming Passes

Passes for default location (London). Set your location on the main map for personalized predictions.

Altitude History

Loading altitude history...

Two-Line Element Set

1 09509U 76108A 26195.34257366 .00000038 00000-0 23243-4 0 9993
2 09509 82.9418 129.4414 0031299 69.6226 44.7701 13.75582673494172
Epoch: Jul 14, 2026 • Age: 11 hours

Current Status

Altitude 1019.5 km
Apogee / Perigee N/A
Velocity 7.33 km/s
Sub-Earth Point -47.44°S, 95.47°E
Type other

Most Searched